[[{"header":{"parameterUnit":"m.s-1","parameterCategory":1,"la1":30.2991,"la2":30.254,"lo1":-89.0895,"lo2":-89.0444,"dy":0.0017,"dx":0.0017,"nx":28,"ny":28,"refTime":"2023-05-28T21:00:00:Z","depth":0,"parameterNumber":2,"parameterNumberName":"U-component_of_WINDS"},"data":[0,0,0,0,0,0,0,0,0,0,0,0,0,0,0,0,0,0,0,0,0,0,0,0,0,0,0,0,0,0,0,0,0,0,0,0,0,0,0,0,0,0,0,0,0,0,0,0,0,0,0,0,0,0,0,0,0,0,-2.8362,-2.8363,0,-2.839,-2.839,-2.839,-2.8374,-2.8373,-2.8372,-2.8372,-2.8397,-2.8398,-2.84,0,0,0,0,0,0,0,0,0,0,0,0,0,-2.8294,-2.8296,-2.8362,-2.8363,-2.8363,-2.839,-2.839,-2.839,-2.8374,-2.8373,-2.8372,-2.8371,-2.8397,-2.8398,-2.84,0,0,0,0,0,0,0,0,0,0,0,0,0,-2.8323,-2.8296,-2.8362,-2.8358,-2.8358,-2.839,-2.839,-2.8391,-2.8374,-2.8373,-2.8372,-2.8371,-2.8396,-2.8398,-2.84,-2.8436,0,0,-2.8406,-2.8407,0,0,0,0,0,0,0,0,-2.8321,-2.8325,-2.8358,-2.8359,-2.8359,-2.8377,-2.8375,-2.8406,-2.8375,-2.8368,-2.8372,-2.837,-2.8391,-2.8394,-2.8401,-2.8437,-2.8439,-2.8407,-2.8408,-2.8409,-2.8409,0,0,0,0,0,0,0,-2.8319,-2.8324,-2.8373,-2.8359,-2.8359,-2.8354,-2.8357,-2.8381,-2.8386,-2.8369,-2.8367,-2.8371,-2.8391,-2.8399,-2.8402,-2.8439,-2.8407,-2.8408,-2.841,-2.8411,-2.8507,-2.8508,0,0,0,0,0,0,-2.8318,-2.8322,-2.8372,-2.8374,-2.8337,-2.8357,-2.836,-2.8372,-2.8385,-2.8386,-2.8372,-2.837,-2.8396,-2.8399,-2.8403,-2.8446,-2.8409,-2.8411,-2.8412,-2.8506,-2.8507,-2.8509,0,0,0,0,0,0,-2.8316,-2.8322,-2.8371,-2.8348,-2.8354,-2.8359,-2.8373,-2.8374,-2.8382,-2.8388,-2.8389,-2.838,-2.8395,-2.84,-2.8428,-2.8447,-2.8412,-2.8414,-2.8504,-2.8506,-2.8508,-2.8533,0,0,0,0,0,0,-2.8315,-2.8322,-2.8336,-2.8348,-2.8355,-2.8397,-2.8375,-2.8375,-2.8386,-2.8384,-2.8395,-2.8396,-2.8395,-2.8425,-2.8431,-2.8449,-2.8415,-2.8503,-2.8505,-2.8508,-2.8531,-2.8536,-2.854,0,0,0,0,0,-2.8312,-2.8341,-2.8337,-2.8343,-2.8373,-2.8398,-2.8402,-2.84,-2.8387,-2.8401,-2.8406,-2.8396,-2.8444,-2.8428,-2.8434,-2.8453,-2.8501,-2.8505,-2.8507,-2.8529,-2.8535,-2.854,0,0,0,0,0,0,-2.8329,-2.8343,-2.8338,-2.8372,-2.8384,-2.8395,-2.8413,-2.8407,-2.8422,-2.8419,-2.8416,-2.8419,-2.8449,-2.8454,-2.8437,-2.849,-2.8471,-2.8475,-2.8485,-2.8491,-2.8495,-2.8493,-2.8417,0,0,0,0,0,-2.8338,-2.8358,-2.8368,-2.8397,-2.8403,-2.8407,-2.8418,-2.8416,-2.8428,-2.8433,-2.8439,-2.8451,-2.8469,-2.848,-2.8497,-2.8532,-2.8534,-2.8548,-2.8553,-2.8557,-2.856,-2.8579,-2.8586,-2.8519,-2.8519,-2.8518,0,0,-2.8354,-2.8363,-2.8376,-2.8401,-2.841,-2.843,-2.8411,-2.8433,-2.8448,-2.8436,-2.8464,-2.8469,-2.8482,-2.8514,-2.8529,-2.8519,-2.8579,-2.856,-2.8563,-2.8565,-2.8583,-2.8589,-2.8595,-2.8521,-2.852,-2.852,0,0,-2.8393,-2.8403,-2.8429,-2.8439,-2.8454,-2.8456,-2.8463,-2.8475,-2.8479,-2.8507,-2.8498,-2.8516,-2.8546,-2.8556,-2.8565,-2.8611,-2.8602,-2.8616,-2.864,-2.8659,-2.8664,-2.8669,-2.8685,-2.8691,-2.862,-2.862,-2.862,0,-2.8411,-2.8442,-2.8442,-2.8466,-2.8477,-2.8468,-2.8494,-2.8503,-2.8522,-2.853,-2.852,-2.8559,-2.8567,-2.8601,-2.8613,-2.862,-2.8627,-2.8614,-2.8664,-2.8668,-2.8673,-2.8688,-2.8694,-2.8621,-2.8621,-2.8621,-2.8621,0,-2.8463,-2.8485,-2.8504,-2.8524,-2.8538,-2.8562,-2.8565,-2.8579,-2.8576,-2.858,-2.8609,-2.8619,-2.8638,-2.8646,-2.8643,-2.8681,-2.8674,-2.8664,-2.8645,-2.8681,-2.8695,-2.8701,-2.8623,-2.8623,-2.8622,-2.8622,0,0,-2.8513,-2.8535,-2.8541,-2.8551,-2.8567,-2.8584,-2.8608,-2.8628,-2.8639,-2.8654,-2.8673,-2.8701,-2.8692,-2.8702,-2.87,-2.8717,-2.8753,-2.8705,-2.8705,-2.8713,-2.8795,-2.8802,-2.8808,-2.8748,-2.8749,-2.875,-2.8793,0,-2.8553,-2.8597,-2.8598,-2.8637,-2.8657,-2.8651,-2.8672,-2.8684,-2.8689,-2.8706,-2.8711,-2.873,-2.8717,-2.8723,-2.874,-2.8745,-2.8769,-2.8742,-2.8766,-2.8766,-2.8762,-2.8816,-2.8823,-2.8863,-2.8799,-2.88,-2.8801,0,-2.8606,-2.8623,-2.8665,-2.868,-2.8688,-2.8707,-2.8726,-2.8743,-2.8757,-2.8759,-2.8772,-2.8768,-2.8793,-2.8774,-2.8808,-2.8789,-2.8799,-2.8804,-2.8805,-2.8806,-2.8785,-2.8818,-2.8876,-2.8882,-2.8809,-2.8809,-2.8808,0,-2.8637,-2.8671,-2.87,-2.8709,-2.8727,-2.8741,-2.8749,-2.8762,-2.8774,-2.879,-2.8798,-2.8817,-2.8827,-2.8841,-2.8843,-2.8829,-2.8877,-2.8858,-2.8879,-2.8879,-2.8888,-2.8887,-2.8948,-2.8896,-2.8896,-2.8896,-2.8895,0,-2.8681,-2.8707,-2.8715,-2.8733,-2.8762,-2.8763,-2.8791,-2.8798,-2.8811,-2.8829,-2.8825,-2.8842,-2.8844,-2.8862,-2.8864,-2.8891,-2.8896,-2.8898,-2.8898,-2.8898,-2.8897,-2.8903,-2.89,-2.8897,-2.8897,-2.8897,-2.8896,0,-2.872,-2.8727,-2.8759,-2.8774,-2.8779,-2.8799,-2.8812,-2.8829,-2.8835,-2.8859,-2.8864,-2.8872,-2.8893,-2.8897,-2.8921,-2.8922,-2.8955,-2.8953,-2.8951,-2.895,-2.897,-2.8968,-2.9036,-2.9045,-2.8988,-2.8989,-2.8989,0,-2.8748,-2.8768,-2.8786,-2.8799,-2.8809,-2.8829,-2.8842,-2.8845,-2.8859,-2.8878,-2.8892,-2.8914,-2.893,-2.8965,-2.8972,-2.8991,-2.8988,-2.9011,-2.8991,-2.8991,-2.8988,-2.8986,-2.8988,-2.9014,-2.9015,-2.9016,-2.9016,0,-2.8795,-2.8798,-2.8818,-2.8839,-2.8855,-2.8871,-2.8886,-2.8897,-2.8902,-2.8918,-2.894,-2.8954,-2.898,-2.9001,-2.902,-2.9028,-2.9023,-2.9023,-2.9028,-2.9028,-2.9026,-2.9027,-2.896,-2.9021,-2.902,-2.902,-2.902,-2.9019,-2.8829,-2.8847,-2.8863,-2.8885,-2.8897,-2.8912,-2.893,-2.8938,-2.8957,-2.8979,-2.898,-2.9005,-2.9019,-2.9045,-2.9054,-2.9073,-2.9066,-2.9074,-2.9076,-2.9078,-2.9079,-2.9024,-2.9077,-2.9077,-2.9077,-2.9076,-2.9076,0,-2.8876,-2.8887,-2.8907,-2.893,-2.8947,-2.8943,-2.896,-2.8975,-2.8997,-2.9012,-2.9029,-2.9055,-2.9076,-2.9086,-2.9107,-2.912,-2.9118,-2.9125,-2.9123,-2.9125,-2.9085,-2.9078,-2.9126,-2.9126,-2.9126,-2.9126,-2.9126,-2.9126,-2.8902,-2.8932,-2.8937,-2.8973,-2.8983,-2.9008,-2.9019,-2.9033,-2.9044,-2.9074,-2.9092,-2.9099,-2.9112,-2.9134,-2.9152,-2.9155,-2.9162,-2.917,-2.9171,-2.9133,-2.9128,-2.9123,-2.9116,-2.9172,-2.9172,-2.921,-2.921,-2.921]},{"header":{"parameterUnit":"m.s-1","parameterCategory":1,"la1":30.2991,"la2":30.254,"lo1":-89.0895,"lo2":-89.0444,"dy":0.0017,"dx":0.0017,"nx":28,"ny":28,"refTime":"2023-05-28T21:00:00:Z","depth":0,"parameterNumber":3,"parameterNumberName":"V-component_of_WINDS"},"data":[0,0,0,0,0,0,0,0,0,0,0,0,0,0,0,0,0,0,0,0,0,0,0,0,0,0,0,0,0,0,0,0,0,0,0,0,0,0,0,0,0,0,0,0,0,0,0,0,0,0,0,0,0,0,0,0,0,0,-0.395,-0.3949,0,-0.3896,-0.3896,-0.3895,-0.3834,-0.3833,-0.3832,-0.3831,-0.3777,-0.3776,-0.3775,0,0,0,0,0,0,0,0,0,0,0,0,0,-0.3998,-0.3997,-0.395,-0.3949,-0.3948,-0.3896,-0.3896,-0.3895,-0.3834,-0.3833,-0.3832,-0.3831,-0.3777,-0.3776,-0.3775,0,0,0,0,0,0,0,0,0,0,0,0,0,-0.3964,-0.3997,-0.395,-0.3912,-0.3908,-0.3897,-0.3896,-0.3895,-0.3834,-0.3833,-0.3831,-0.383,-0.3777,-0.3776,-0.3775,-0.3797,0,0,-0.3772,-0.3772,0,0,0,0,0,0,0,0,-0.3966,-0.3962,-0.3918,-0.3914,-0.391,-0.387,-0.3892,-0.3862,-0.3835,-0.3862,-0.3831,-0.383,-0.3809,-0.3805,-0.3798,-0.3795,-0.3792,-0.3772,-0.3772,-0.3771,-0.3771,0,0,0,0,0,0,0,-0.3968,-0.3964,-0.3929,-0.3917,-0.3912,-0.3897,-0.3891,-0.3886,-0.3844,-0.386,-0.3855,-0.385,-0.3806,-0.3799,-0.3797,-0.3792,-0.3772,-0.3772,-0.3771,-0.3771,-0.3802,-0.3804,0,0,0,0,0,0,-0.3976,-0.3966,-0.393,-0.3927,-0.3935,-0.3897,-0.389,-0.3884,-0.3844,-0.3836,-0.3851,-0.3847,-0.3802,-0.3798,-0.3794,-0.3817,-0.3771,-0.3771,-0.377,-0.3801,-0.3803,-0.3804,0,0,0,0,0,0,-0.3978,-0.3974,-0.3932,-0.3945,-0.3939,-0.3898,-0.3892,-0.3884,-0.3877,-0.3837,-0.3829,-0.3852,-0.38,-0.3796,-0.3797,-0.3815,-0.377,-0.3769,-0.3799,-0.3801,-0.3803,-0.3864,0,0,0,0,0,0,-0.3979,-0.3975,-0.3983,-0.3946,-0.3939,-0.3936,-0.3893,-0.3884,-0.3876,-0.387,-0.3836,-0.3829,-0.3799,-0.3798,-0.3796,-0.3813,-0.3769,-0.3798,-0.38,-0.3803,-0.386,-0.3868,-0.3874,0,0,0,0,0,-0.3981,-0.4002,-0.3984,-0.398,-0.3948,-0.3938,-0.3933,-0.3899,-0.3877,-0.3885,-0.3859,-0.383,-0.3813,-0.3799,-0.3796,-0.3813,-0.3796,-0.38,-0.3803,-0.3857,-0.3866,-0.3874,0,0,0,0,0,0,-0.4043,-0.3997,-0.3976,-0.3986,-0.3966,-0.3927,-0.3936,-0.391,-0.3896,-0.3891,-0.3848,-0.3841,-0.3847,-0.3829,-0.3815,-0.3831,-0.38,-0.3803,-0.3843,-0.3851,-0.3858,-0.3863,-0.3768,0,0,0,0,0,-0.4058,-0.4053,-0.4013,-0.4025,-0.4016,-0.3978,-0.3972,-0.3947,-0.3925,-0.3916,-0.389,-0.387,-0.386,-0.3854,-0.3843,-0.3857,-0.3848,-0.3866,-0.3873,-0.3879,-0.3883,-0.3888,-0.3896,-0.3814,-0.3814,-0.3814,0,0,-0.4088,-0.4062,-0.4062,-0.4037,-0.4019,-0.4015,-0.3972,-0.3969,-0.3966,-0.3916,-0.3916,-0.3896,-0.387,-0.3878,-0.388,-0.3863,-0.3903,-0.3883,-0.3888,-0.3888,-0.3892,-0.39,-0.3907,-0.3816,-0.3816,-0.3816,0,0,-0.4142,-0.4122,-0.413,-0.4112,-0.4085,-0.4059,-0.4061,-0.4026,-0.4011,-0.401,-0.3972,-0.3966,-0.395,-0.3933,-0.3923,-0.3968,-0.394,-0.3965,-0.4003,-0.4009,-0.4015,-0.4021,-0.4037,-0.4044,-0.3968,-0.3968,-0.3968,0,-0.4183,-0.4176,-0.4138,-0.4137,-0.4127,-0.4081,-0.4089,-0.4073,-0.4044,-0.4038,-0.4019,-0.3997,-0.3977,-0.3979,-0.399,-0.3983,-0.3984,-0.397,-0.4017,-0.4022,-0.4027,-0.4042,-0.4049,-0.3971,-0.3971,-0.3971,-0.397,0,-0.4229,-0.4224,-0.4234,-0.4206,-0.4197,-0.4201,-0.4162,-0.4157,-0.4132,-0.4108,-0.4107,-0.408,-0.4062,-0.4061,-0.4036,-0.406,-0.405,-0.4025,-0.3994,-0.4039,-0.4052,-0.4058,-0.3976,-0.3975,-0.3974,-0.3973,0,0,-0.4322,-0.4272,-0.4276,-0.4263,-0.4228,-0.4224,-0.4225,-0.4207,-0.4204,-0.4184,-0.4184,-0.417,-0.4147,-0.4134,-0.4107,-0.4113,-0.415,-0.4086,-0.4085,-0.41,-0.4174,-0.4195,-0.4202,-0.4131,-0.4132,-0.4133,-0.4177,0,-0.437,-0.437,-0.4335,-0.4344,-0.4339,-0.4294,-0.4295,-0.4274,-0.4251,-0.4243,-0.4216,-0.4208,-0.4177,-0.4169,-0.4172,-0.4145,-0.4165,-0.4141,-0.4131,-0.4131,-0.414,-0.4209,-0.423,-0.4274,-0.4182,-0.4183,-0.4183,0,-0.4427,-0.4411,-0.442,-0.4384,-0.4381,-0.4383,-0.4363,-0.4356,-0.433,-0.4313,-0.4299,-0.4268,-0.4265,-0.4234,-0.4231,-0.4216,-0.4209,-0.4195,-0.4195,-0.4194,-0.4161,-0.4211,-0.4287,-0.4294,-0.4191,-0.4191,-0.419,0,-0.4495,-0.4475,-0.4478,-0.4468,-0.4426,-0.4428,-0.4411,-0.4384,-0.4375,-0.4358,-0.4351,-0.4334,-0.4325,-0.4311,-0.4276,-0.4257,-0.4277,-0.4243,-0.4262,-0.4264,-0.427,-0.4271,-0.4347,-0.4264,-0.4264,-0.4264,-0.4264,0,-0.4554,-0.4562,-0.4508,-0.451,-0.4517,-0.4475,-0.4483,-0.4461,-0.4437,-0.4433,-0.4393,-0.439,-0.4343,-0.4335,-0.4307,-0.4309,-0.4304,-0.429,-0.4283,-0.4295,-0.4297,-0.4291,-0.4287,-0.4265,-0.4265,-0.4265,-0.4264,0,-0.4632,-0.4597,-0.4597,-0.4557,-0.4547,-0.4554,-0.4519,-0.4519,-0.4492,-0.4488,-0.4485,-0.4444,-0.4432,-0.4395,-0.4374,-0.4355,-0.4365,-0.435,-0.4374,-0.437,-0.4392,-0.4391,-0.4468,-0.4476,-0.4387,-0.4388,-0.4389,0,-0.4673,-0.4678,-0.4638,-0.4632,-0.4617,-0.4609,-0.4599,-0.4558,-0.455,-0.452,-0.4523,-0.4508,-0.4494,-0.4477,-0.4445,-0.4428,-0.4414,-0.4442,-0.4411,-0.4422,-0.4415,-0.4416,-0.4416,-0.4449,-0.4451,-0.4452,-0.4452,0,-0.4749,-0.4731,-0.4719,-0.4701,-0.4691,-0.4674,-0.4655,-0.4653,-0.4606,-0.4599,-0.4587,-0.4576,-0.4553,-0.4539,-0.4517,-0.4498,-0.4468,-0.4462,-0.4466,-0.4479,-0.4492,-0.4486,-0.4394,-0.4461,-0.446,-0.4459,-0.4459,-0.4459,-0.481,-0.4812,-0.4784,-0.4772,-0.4753,-0.4736,-0.4734,-0.4707,-0.4696,-0.4675,-0.465,-0.464,-0.4613,-0.458,-0.4564,-0.4555,-0.4539,-0.4544,-0.4546,-0.4548,-0.4554,-0.4493,-0.4551,-0.455,-0.455,-0.455,-0.455,0,-0.4885,-0.4864,-0.4853,-0.4828,-0.4818,-0.4789,-0.4766,-0.476,-0.4752,-0.4729,-0.4716,-0.4701,-0.4686,-0.4652,-0.4634,-0.4634,-0.4619,-0.4631,-0.4631,-0.4627,-0.4569,-0.4568,-0.4643,-0.4643,-0.4643,-0.4643,-0.4643,-0.4643,-0.4922,-0.4924,-0.4902,-0.4894,-0.4873,-0.4863,-0.4853,-0.4837,-0.4818,-0.4803,-0.4791,-0.4768,-0.4741,-0.472,-0.4705,-0.4695,-0.4691,-0.4707,-0.4693,-0.464,-0.4631,-0.4623,-0.4622,-0.4706,-0.4706,-0.4751,-0.4752,-0.4752]}]]